Borger, TX

9:07 AM CDT on September 26, 2016 (GMT -0500)
Hutchinson County

Weather History for KBGD - October, 2013

Change the Weather History Date:

Monday, October 21, 2013

  Actual Average Record
Temperature  
Mean Temperature 55 °F 58 °F  
Max Temperature 64 °F 71 °F 90 °F (1975)
Min Temperature 45 °F 46 °F 31 °F (1996)
Degree Days  
Heating Degree Days 10 7  
Month to date heating degree days 124 103  
Since 1 July heating degree days 127 131  
Cooling Degree Days 0 1  
Month to date cooling degree days 53 45  
Year to date cooling degree days 2215 1830  
Growing Degree Days 4 (Base 50)    
Moisture  
Dew Point 34 °F    
Average Humidity 47    
Maximum Humidity 66    
Minimum Humidity 27    
Precipitation  
Precipitation 0.00 in 0.05 in 2.32 in (2015)
Month to date precipitation 0.24 1.29  
Year to date precipitation 14.06 19.68  
Snow  
Snow 0.00 in - 1.00 in (1996)
Month to date snowfall 0.0  
Since 1 July snowfall 0.0  
Since 1 September snowfall 0.0  
Snow Depth 0.00 in    
Sea Level Pressure  
Sea Level Pressure 30.09 in    
Wind  
Wind Speed 8 mph (NNE)    
Max Wind Speed 17 mph    
Max Gust Speed 22 mph    
Visibility 10 miles    
Events      
T = Trace of Precipitation, MM = Missing Value Source: NWS Daily Summary

Daily Weather History Graph

Daily Weather History Graph

Search for Another Location

Airport or City:

Trip Planner

Search our weather history database for the weather conditions in past years. The results will help you decide how hot, cold, wet, or windy it might be!

Date:

Astronomy

Oct. 21, 2013 Rise Set
Actual Time 7:57 AM CDT 7:02 PM CDT
Civil Twilight 7:31 AM CDT 7:28 PM CDT
Nautical Twilight 7:01 AM CDT 7:57 PM CDT
Astronomical Twilight 6:32 AM CDT 8:27 PM CDT
Moon 9:01 PM CDT (10/21) 10:29 AM CDT (10/21)
Length of Visible Light 11h 56m
Length of Day
11h 04m
Waning Gibbous, 92% of the Moon is Illuminated
Oct 21
Waning Gibbous
Oct 26
Last Quarter
Nov 3
New
Nov 9
First Quarter
Nov 17
Full

Hourly Weather History & Observations

Time (CDT) Temp. Windchill Dew Point Humidity Pressure Visibility Wind Dir Wind Speed Gust Speed Precip Events Conditions
12:51 AM 52.0 °F - 37.0 °F 57% 29.96 in 10.0 mi NNE 15.0 mph - N/A   Clear
1:51 AM 51.1 °F - 37.0 °F 59% 29.97 in 10.0 mi North 12.7 mph - N/A   Clear
2:51 AM 50.0 °F - 36.0 °F 59% 29.99 in 10.0 mi NNE 9.2 mph - N/A   Clear
3:51 AM 50.0 °F - 35.1 °F 57% 30.00 in 10.0 mi NNE 12.7 mph - N/A   Clear
4:51 AM 50.0 °F - 36.0 °F 59% 30.01 in 10.0 mi NNE 11.5 mph - N/A   Clear
5:51 AM 48.0 °F - 36.0 °F 63% 30.04 in 10.0 mi NE 4.6 mph - N/A   Clear
6:51 AM 48.0 °F - 37.0 °F 66% 30.07 in 10.0 mi North 9.2 mph - N/A   Clear
7:51 AM 46.0 °F 42.5 °F 36.0 °F 68% 30.11 in 10.0 mi NNW 6.9 mph - N/A   Clear
8:51 AM 48.0 °F - 37.9 °F 68% 30.12 in 10.0 mi North 12.7 mph - N/A   Clear
9:51 AM 50.0 °F - 37.0 °F 61% 30.14 in 10.0 mi NNE 12.7 mph - N/A   Partly Cloudy
10:51 AM 52.0 °F - 36.0 °F 54% 30.17 in 10.0 mi NE 11.5 mph - N/A   Partly Cloudy
11:51 AM 54.0 °F - 36.0 °F 51% 30.17 in 10.0 mi NNE 9.2 mph - N/A   Clear
12:51 PM 57.0 °F - 35.1 °F 44% 30.17 in 10.0 mi North 10.4 mph 16.1 mph N/A   Clear
1:51 PM 59.0 °F - 34.0 °F 39% 30.14 in - North - - N/A   Clear
2:51 PM 60.1 °F - 33.1 °F 36% 30.11 in - NNE 10.4 mph - N/A   Clear
3:51 PM 62.1 °F - 30.0 °F 30% 30.09 in 10.0 mi North 9.2 mph - 0.10 in   Clear
4:51 PM 63.0 °F - 30.0 °F 29% 30.08 in 10.0 mi North 3.5 mph - N/A   Clear
5:51 PM 63.0 °F - 28.9 °F 28% 30.09 in 10.0 mi North 5.8 mph - N/A   Clear
6:51 PM 61.0 °F - 28.9 °F 30% 30.10 in 10.0 mi North 3.5 mph - N/A   Clear
7:51 PM 57.9 °F - 30.0 °F 35% 30.12 in 10.0 mi Calm Calm - N/A   Clear
8:51 PM 55.9 °F - 30.9 °F 39% 30.12 in 10.0 mi SSE 4.6 mph - N/A   Clear
9:51 PM 54.0 °F - 30.0 °F 40% 30.12 in 10.0 mi South 5.8 mph - N/A   Clear
10:51 PM 51.1 °F - 30.0 °F 44% 30.15 in 10.0 mi South 5.8 mph - N/A   Clear
11:51 PM 48.0 °F - 30.0 °F 50% 30.16 in 10.0 mi West 3.5 mph - N/A   Clear